Location: Gleizolles
(44.4833°N, 6.7667°E)
Time: 13:55:22
(UTC+00:00)

Vanguard 1 - Pass Details

Date: 28 June 2024
Orbit: 650 x 3826 km, 34.3° (Epoch: 15 July)

Event Time Altitude Azimuth Distance (km) Brightness Sun altitude
Rises 14:50:00 0° 262° (W) 3,596 13.7 45.4°
Reaches altitude 10° 14:55:37 10° 218° (SW) 2,193 12.6 44.4°
Maximum altitude 14:56:04 10° 213° (SSW) 2,160 12.5 44.3°
Drops below altitude 10° 14:56:31 10° 207° (SSW) 2,145 12.4 44.2°
Sets 15:01:16 0° 160° (SSE) 2,947 12.5 43.4°
